Hourly Data Report for October 05, 2013

All times are specified in Local Standard Time (LST). Add 1 hour to adjust for Daylight Saving Time where and when it is observed.

KITCHENER/WATERLOO
ONTARIO

43°27'39.000" N
80°22'43.000" W
321.60 m
6144239
71368
YKF

Download Data

Hourly Data (October 2013)
Hourly Data Report for October 5, 2013
Temp Definition
°C
Dew Point Temp Definition
°C
Rel Hum Definition
%
Wind Dir Definition
10's deg

Wind Spd Definition
km/h
Visibility Definition
km
Stn Press Definition
kPa
Hmdx Definition


Wind Chill Definition


Weather Definition


TIME
00:00 Legend Double Dagger 14.2 13.7 97 9 11 2.4 97.99     LegendNANA
01:00 Legend Double Dagger 14.2 13.7 97 9 11 2.4 98.05     LegendNANA
02:00 Legend Double Dagger 14.1 13.6 97 10 13 2.4 98.06     LegendNANA
03:00 Legend Double Dagger 13.8 13.3 97 8 11 2.8 98.04     LegendNANA
04:00 Legend Double Dagger 13.8 13.2 96 7 11 3.6 98.04     LegendNANA
05:00 Legend Double Dagger 13.9 13.3 96 8 9 4.8 98.05     LegendNANA
06:00 Legend Double Dagger 13.9 13.3 96 9 13 4.8 98.10     LegendNANA
07:00 Legend Double Dagger 13.6 13.0 96 8 13 4.8 98.10     LegendNANA
08:00 Legend Double Dagger 13.3 12.5 95 7 15 4.0 98.15     LegendNANA
09:00 Legend Double Dagger 13.3 12.4 94 8 15 6.4 98.12     LegendNANA
10:00 Legend Double Dagger 13.9 12.6 92 8 15 9.7 98.08     LegendNANA
11:00 Legend Double Dagger 14.7 12.7 88 8 15 16.1 98.08     LegendNANA
12:00 Legend Double Dagger 14.8 12.7 87 8 18 16.1 98.05     LegendNANA
13:00 Legend Double Dagger 15.5 12.9 84 8 11 16.1 98.04     LegendNANA
14:00 Legend Double Dagger 15.4 12.8 85 8 13 16.1 98.05     LegendNANA
15:00 Legend Double Dagger 15.6 12.8 83 8 18 16.1 97.92     LegendNANA
16:00 Legend Double Dagger 15.2 12.2 82 9 15 16.1 97.90     LegendNANA
17:00 Legend Double Dagger 14.6 11.6 82 9 21 16.1 97.88     LegendNANA
18:00 Legend Double Dagger 14.2 10.9 80 8 18 16.1 97.86     LegendNANA
19:00 Legend Double Dagger 14.1 10.9 81 9 11 16.1 97.91     LegendNANA
20:00 Legend Double Dagger 14.0 11.7 86 9 11 16.1 97.95     LegendNANA
21:00 Legend Double Dagger 14.3 11.8 85 8 17 16.1 97.93     LegendNANA
22:00 Legend Double Dagger 14.3 11.8 85 7 18 16.1 97.85     LegendNANA
23:00 Legend Double Dagger 14.3 11.3 82 8 21 16.1 97.78     LegendNANA

Notes on Data Quality.

Legend

  • E = Estimated
  • M = Missing
  • NA = Not Available
  • ‡ = Partner data that is not subject to review by the National Climate Archives
Date modified: